[[{"header":{"parameterUnit":"m.s-1","parameterCategory":1,"la1":30.2991,"la2":30.254,"lo1":-89.0895,"lo2":-89.0444,"dy":0.0017,"dx":0.0017,"nx":28,"ny":28,"refTime":"2023-08-06T09:00:00:Z","depth":0,"parameterNumber":2,"parameterNumberName":"U-component_of_WINDS"},"data":[0,0,0,0,0,0,0,0,0,0,0,0,0,0,0,0,0,0,0,0,0,0,0,0,0,0,0,0,0,0,0,0,0,0,0,0,0,0,0,0,0,0,0,0,0,0,0,0,0,0,0,0,0,0,0,0,0,0,5.7828,5.783,0,5.7986,5.7988,5.799,5.7926,5.7922,5.7918,5.7915,5.8077,5.8085,5.8092,0,0,0,0,0,0,0,0,0,0,0,0,0,5.7467,5.7474,5.7828,5.783,5.7832,5.7986,5.7988,5.799,5.7926,5.7922,5.7917,5.7913,5.8074,5.8084,5.8093,0,0,0,0,0,0,0,0,0,0,0,0,0,5.7625,5.7477,5.7827,5.7818,5.7819,5.7985,5.7988,5.7991,5.7927,5.7922,5.7916,5.7911,5.8071,5.8083,5.8094,5.8279,0,0,5.813,5.8135,0,0,0,0,0,0,0,0,5.7616,5.7638,5.7818,5.7819,5.782,5.793,5.792,5.8087,5.7929,5.7886,5.7915,5.7908,5.8033,5.8047,5.8089,5.8286,5.8293,5.8131,5.8138,5.8143,5.8147,0,0,0,0,0,0,0,5.7605,5.7631,5.789,5.782,5.7822,5.7806,5.7822,5.7952,5.7989,5.789,5.7885,5.7905,5.8032,5.8078,5.8093,5.8296,5.8131,5.8141,5.8148,5.8153,5.8647,5.8653,0,0,0,0,0,0,5.7594,5.7622,5.7885,5.7895,5.7702,5.7817,5.7835,5.7901,5.7987,5.7995,5.791,5.7901,5.8061,5.8079,5.8098,5.8316,5.8143,5.8154,5.8161,5.8641,5.8648,5.8655,0,0,0,0,0,0,5.7587,5.7618,5.7879,5.7758,5.7789,5.7829,5.7904,5.7907,5.7952,5.8003,5.8009,5.795,5.8057,5.8082,5.8233,5.8321,5.8159,5.817,5.8634,5.8643,5.8652,5.8756,0,0,0,0,0,0,5.7577,5.7616,5.7687,5.776,5.7796,5.8012,5.7909,5.7914,5.7973,5.7964,5.8042,5.8049,5.8055,5.8216,5.8245,5.8334,5.8179,5.8626,5.8638,5.8649,5.8745,5.8767,5.8787,0,0,0,0,0,5.7564,5.7711,5.7691,5.7723,5.7886,5.8018,5.8038,5.8042,5.798,5.8051,5.8083,5.8047,5.8307,5.8232,5.8264,5.8358,5.8621,5.8635,5.8648,5.8735,5.8763,5.8786,0,0,0,0,0,0,5.7648,5.772,5.7699,5.7874,5.794,5.8007,5.8096,5.8072,5.8157,5.8144,5.8145,5.8163,5.8318,5.8354,5.8269,5.8539,5.8454,5.8475,5.851,5.8537,5.8557,5.8544,5.8189,0,0,0,0,0,5.7687,5.7789,5.7846,5.7995,5.8029,5.8057,5.8115,5.8111,5.818,5.8207,5.825,5.8318,5.8414,5.8478,5.857,5.875,5.8764,5.883,5.8851,5.8868,5.8885,5.8979,5.9008,5.87,5.87,5.87,0,0,5.7769,5.7821,5.7885,5.8013,5.8064,5.8167,5.8081,5.8195,5.8271,5.8225,5.8369,5.8403,5.8478,5.8644,5.8719,5.8678,5.8974,5.8886,5.8899,5.8907,5.8996,5.9026,5.9051,5.8709,5.8708,5.8706,0,0,5.797,5.8021,5.8148,5.82,5.8278,5.8295,5.8326,5.8396,5.8416,5.8561,5.8527,5.8618,5.8785,5.8838,5.8888,5.9106,5.9074,5.9136,5.9245,5.9337,5.9361,5.9382,5.9457,5.9484,5.9154,5.9154,5.9154,0,5.8061,5.8216,5.8217,5.8333,5.8389,5.8351,5.8478,5.8529,5.8633,5.8672,5.8625,5.8831,5.888,5.9055,5.9108,5.9151,5.9183,5.9126,5.9358,5.9379,5.9399,5.947,5.9498,5.9161,5.916,5.9159,5.9159,0,5.8322,5.843,5.8524,5.8623,5.869,5.8812,5.883,5.8897,5.8888,5.891,5.9056,5.9113,5.9213,5.9255,5.9248,5.9429,5.9401,5.9356,5.9271,5.9435,5.9501,5.9529,5.917,5.9168,5.9166,5.9164,0,0,5.8581,5.8678,5.8712,5.8755,5.8836,5.8919,5.9038,5.9136,5.9192,5.9265,5.9362,5.9503,5.9461,5.9517,5.9515,5.9596,5.976,5.9541,5.9543,5.9577,5.9959,5.999,6.0021,5.9741,5.9746,5.9751,5.9951,0,5.8785,5.8992,5.8996,5.9186,5.9283,5.9248,5.935,5.9411,5.9434,5.9519,5.9545,5.9643,5.9583,5.9615,5.9694,5.9724,5.9837,5.971,5.9829,5.9834,5.9808,6.0057,6.009,6.0277,5.9978,5.9982,5.9985,0,5.9051,5.913,5.9329,5.9393,5.9434,5.9527,5.9614,5.9698,5.9764,5.9775,5.9837,5.9822,5.9941,5.9854,6.0016,5.9929,5.9978,6.0,6.0007,6.0016,5.9917,6.0069,6.0337,6.0364,6.0027,6.0024,6.0021,0,5.9214,5.9371,5.9509,5.9548,5.9627,5.9692,5.9728,5.979,5.9847,5.9924,5.9961,6.0052,6.0101,6.017,6.0179,6.0116,6.0341,6.0256,6.0351,6.0351,6.0398,6.0394,6.0675,6.0436,6.0436,6.0435,6.0434,0,5.944,5.9562,5.9583,5.9668,5.9803,5.9806,5.9939,5.997,6.0024,6.0113,6.0089,6.0173,6.0181,6.0268,6.0276,6.0406,6.043,6.044,6.044,6.0441,6.0439,6.0471,6.0456,6.0442,6.0441,6.0439,6.0438,0,5.9644,5.9664,5.9812,5.9874,5.9892,5.9989,6.0041,6.0122,6.0142,6.0254,6.0281,6.0313,6.0412,6.0429,6.0547,6.0552,6.0707,6.0696,6.0684,6.0682,6.0775,6.0764,6.1083,6.1123,6.0861,6.0864,6.0866,0,5.9785,5.9878,5.995,6.0007,6.0046,6.014,6.0197,6.0203,6.0264,6.0345,6.0415,6.0512,6.0589,6.075,6.0783,6.0872,6.086,6.0966,6.0874,6.0869,6.0857,6.085,6.0858,6.0983,6.0985,6.0988,6.099,0,6.0032,6.0037,6.0121,6.0208,6.0278,6.0347,6.0412,6.0461,6.0474,6.0544,6.0645,6.0705,6.0824,6.0919,6.1007,6.1043,6.1018,6.1019,6.1045,6.1044,6.1032,6.1036,6.0729,6.1011,6.1009,6.1007,6.1006,6.1005,6.0207,6.0286,6.0348,6.0442,6.0491,6.0552,6.0629,6.0658,6.0742,6.0839,6.0837,6.0947,6.1008,6.1124,6.1165,6.125,6.1216,6.1255,6.1264,6.1273,6.128,6.1021,6.1267,6.1266,6.1266,6.1265,6.1265,0,6.0449,6.0487,6.0573,6.0664,6.0737,6.0708,6.0778,6.084,6.0937,6.0997,6.1073,6.1187,6.1279,6.1318,6.1408,6.1468,6.1459,6.1491,6.1485,6.1493,6.1307,6.1274,6.1497,6.1497,6.1497,6.1497,6.1497,6.1497,6.0584,6.0715,6.0726,6.0881,6.0917,6.1024,6.1066,6.1121,6.1168,6.1296,6.1372,6.1397,6.1448,6.154,6.1622,6.1631,6.1664,6.1701,6.1705,6.153,6.1506,6.1484,6.1452,6.1709,6.1709,6.1882,6.1884,6.1885]},{"header":{"parameterUnit":"m.s-1","parameterCategory":1,"la1":30.2991,"la2":30.254,"lo1":-89.0895,"lo2":-89.0444,"dy":0.0017,"dx":0.0017,"nx":28,"ny":28,"refTime":"2023-08-06T09:00:00:Z","depth":0,"parameterNumber":3,"parameterNumberName":"V-component_of_WINDS"},"data":[0,0,0,0,0,0,0,0,0,0,0,0,0,0,0,0,0,0,0,0,0,0,0,0,0,0,0,0,0,0,0,0,0,0,0,0,0,0,0,0,0,0,0,0,0,0,0,0,0,0,0,0,0,0,0,0,0,0,2.5184,2.5185,0,2.5264,2.5265,2.5266,2.525,2.5249,2.5247,2.5246,2.5327,2.533,2.5334,0,0,0,0,0,0,0,0,0,0,0,0,0,2.5014,2.5017,2.5184,2.5185,2.5186,2.5264,2.5265,2.5266,2.5251,2.5249,2.5247,2.5245,2.5326,2.533,2.5334,0,0,0,0,0,0,0,0,0,0,0,0,0,2.509,2.5018,2.5184,2.5188,2.5189,2.5264,2.5265,2.5267,2.5251,2.5249,2.5246,2.5244,2.5324,2.5329,2.5334,2.5411,0,0,2.5351,2.5353,0,0,0,0,0,0,0,0,2.5086,2.5096,2.5186,2.5187,2.5189,2.5245,2.5235,2.5315,2.5251,2.5227,2.5246,2.5243,2.5301,2.5308,2.5328,2.5415,2.5418,2.5351,2.5354,2.5356,2.5358,0,0,0,0,0,0,0,2.5081,2.5093,2.5216,2.5187,2.5189,2.5184,2.5193,2.525,2.5275,2.5229,2.5228,2.5238,2.5302,2.5323,2.533,2.5419,2.5351,2.5356,2.5359,2.5361,2.557,2.5572,0,0,0,0,0,0,2.5074,2.5089,2.5213,2.5218,2.5131,2.5189,2.5198,2.5229,2.5275,2.528,2.524,2.5237,2.5315,2.5324,2.5333,2.5424,2.5356,2.5361,2.5364,2.5568,2.5571,2.5573,0,0,0,0,0,0,2.5071,2.5086,2.521,2.5153,2.5169,2.5194,2.5229,2.5232,2.5253,2.5283,2.5287,2.5257,2.5314,2.5325,2.5391,2.5426,2.5364,2.5369,2.5565,2.5569,2.5572,2.5608,0,0,0,0,0,0,2.5066,2.5084,2.5115,2.5154,2.5172,2.5268,2.5231,2.5235,2.5263,2.526,2.53,2.5305,2.5313,2.5383,2.5396,2.5433,2.5373,2.5562,2.5567,2.5571,2.5604,2.5612,2.562,0,0,0,0,0,2.506,2.5121,2.5116,2.5131,2.521,2.527,2.528,2.5289,2.5266,2.5296,2.5314,2.5304,2.542,2.539,2.5405,2.5443,2.556,2.5565,2.557,2.56,2.561,2.5619,0,0,0,0,0,0,2.5085,2.5127,2.5121,2.5198,2.5231,2.5268,2.5306,2.53,2.534,2.5335,2.5343,2.5352,2.5419,2.5438,2.5403,2.5518,2.5487,2.5495,2.5504,2.5514,2.5522,2.5516,2.5377,0,0,0,0,0,2.51,2.5146,2.518,2.5244,2.526,2.528,2.5307,2.531,2.5344,2.5358,2.5382,2.5415,2.5458,2.5487,2.5529,2.5606,2.5614,2.5639,2.5647,2.5653,2.5661,2.5701,2.5712,2.5591,2.5591,2.5591,0,0,2.5131,2.5159,2.5188,2.5249,2.5275,2.5322,2.5292,2.5343,2.5378,2.5366,2.5429,2.5447,2.5485,2.5556,2.5588,2.5573,2.5696,2.566,2.5665,2.5669,2.5708,2.5719,2.5729,2.5595,2.5594,2.5593,0,0,2.521,2.5237,2.5292,2.5319,2.5358,2.5371,2.5384,2.5421,2.5433,2.5497,2.5489,2.5529,2.5605,2.5631,2.5655,2.5742,2.5733,2.5755,2.5797,2.5836,2.5846,2.5854,2.5884,2.5895,2.5762,2.5762,2.5762,0,2.5243,2.5314,2.5321,2.5373,2.54,2.5391,2.5447,2.5472,2.5523,2.5541,2.5523,2.5617,2.5642,2.5718,2.5739,2.5759,2.5773,2.5751,2.5844,2.5852,2.586,2.5889,2.5901,2.5765,2.5764,2.5764,2.5764,0,2.5352,2.5401,2.5441,2.5491,2.5522,2.5575,2.559,2.562,2.562,2.5634,2.5698,2.5727,2.5774,2.5792,2.5793,2.5868,2.5858,2.5842,2.581,2.5874,2.5901,2.5913,2.5768,2.5767,2.5767,2.5766,0,0,2.5451,2.5503,2.5518,2.5539,2.5581,2.5619,2.5671,2.5717,2.5743,2.5777,2.5821,2.5884,2.5869,2.5896,2.5899,2.5933,2.5999,2.5913,2.5914,2.5928,2.6082,2.6094,2.6107,2.5993,2.5995,2.5997,2.6079,0,2.5534,2.5627,2.5634,2.5717,2.5762,2.5753,2.5798,2.5828,2.5842,2.5881,2.5896,2.594,2.5918,2.5933,2.5967,2.5984,2.603,2.5978,2.6033,2.6034,2.6024,2.6121,2.6134,2.621,2.609,2.6092,2.6093,0,2.5644,2.5682,2.5769,2.5804,2.5823,2.5863,2.5905,2.5943,2.5976,2.5983,2.6012,2.601,2.6062,2.6028,2.6099,2.6064,2.6086,2.6097,2.61,2.6106,2.6068,2.6129,2.6235,2.6246,2.611,2.6109,2.6107,0,2.5706,2.5779,2.5841,2.586,2.5902,2.593,2.5949,2.5979,2.6006,2.6043,2.606,2.6101,2.6124,2.6156,2.6165,2.614,2.6235,2.6202,2.6242,2.6242,2.6263,2.6262,2.6373,2.6278,2.6278,2.6277,2.6277,0,2.5798,2.5852,2.587,2.5907,2.5967,2.5974,2.6032,2.6049,2.6076,2.6116,2.611,2.6148,2.6157,2.6196,2.6203,2.626,2.627,2.6277,2.6278,2.6278,2.6277,2.6292,2.6287,2.628,2.628,2.6279,2.6279,0,2.5879,2.5893,2.5959,2.5993,2.6002,2.6044,2.6073,2.6108,2.6121,2.6171,2.6183,2.6202,2.6248,2.6259,2.6313,2.6318,2.6385,2.6381,2.6374,2.6374,2.6413,2.6409,2.6539,2.6555,2.6449,2.645,2.6451,0,2.5937,2.5978,2.6015,2.6042,2.6062,2.6105,2.6132,2.6139,2.6168,2.6207,2.6238,2.6282,2.6318,2.639,2.6409,2.6449,2.6446,2.6489,2.6453,2.645,2.6446,2.6444,2.6447,2.6496,2.6497,2.6498,2.6499,0,2.6037,2.6042,2.6081,2.6123,2.6155,2.6189,2.622,2.6242,2.6254,2.6286,2.6332,2.636,2.6414,2.6458,2.6499,2.6516,2.6509,2.651,2.6521,2.6521,2.6515,2.6518,2.6393,2.6507,2.6506,2.6506,2.6505,2.6505,2.6108,2.6143,2.6175,2.6219,2.6243,2.6273,2.6307,2.6324,2.6362,2.6408,2.641,2.646,2.6489,2.6544,2.6563,2.6602,2.6589,2.6605,2.6609,2.6613,2.6616,2.6509,2.6609,2.6609,2.6609,2.6609,2.6608,0,2.6207,2.6227,2.6267,2.6312,2.6346,2.6336,2.637,2.6399,2.6443,2.6472,2.6507,2.6559,2.6601,2.6622,2.6663,2.669,2.6687,2.67,2.6698,2.6702,2.6626,2.6612,2.6701,2.6701,2.6701,2.6701,2.6701,2.6701,2.6263,2.6323,2.6331,2.6401,2.642,2.6469,2.6489,2.6516,2.6539,2.6597,2.6632,2.6645,2.6671,2.6713,2.6751,2.6756,2.6771,2.6785,2.6789,2.6717,2.6708,2.6699,2.6685,2.6789,2.6789,2.6862,2.6862,2.6863]}]]